TimeAKST,TemperatureF,Dew PointF,Humidity,Sea Level PressureIn,VisibilityMPH,Wind Direction,Wind SpeedMPH,Gust SpeedMPH,PrecipitationIn,Events,Conditions,WindDirDegrees,DateUTC
12:53 AM,19.9,15.1,81,30.40,10.0,Calm,Calm,-,N/A,,Clear,0,2013-12-01 09:53:00
1:53 AM,25.0,19.9,81,30.39,10.0,NE,4.6,-,N/A,,Clear,50,2013-12-01 10:53:00
2:53 AM,28.9,19.0,67,30.38,10.0,SE,10.4,-,N/A,,Clear,140,2013-12-01 11:53:00
3:53 AM,30.0,21.0,69,30.37,10.0,SSE,12.7,-,N/A,,Clear,150,2013-12-01 12:53:00
4:53 AM,33.1,25.0,72,30.33,10.0,SE,13.8,-,N/A,,Scattered Clouds,140,2013-12-01 13:53:00
5:53 AM,34.0,26.1,73,30.32,10.0,SSE,16.1,-,N/A,,Scattered Clouds,150,2013-12-01 14:53:00
6:53 AM,33.1,26.1,75,30.31,10.0,SSE,17.3,-,N/A,,Mostly Cloudy,150,2013-12-01 15:53:00
7:53 AM,36.0,27.0,70,30.31,10.0,SE,17.3,-,N/A,,Mostly Cloudy,140,2013-12-01 16:53:00
8:53 AM,36.0,27.0,70,30.30,10.0,SSE,19.6,-,N/A,,Mostly Cloudy,150,2013-12-01 17:53:00
9:53 AM,36.0,27.0,70,30.31,10.0,SE,18.4,-,N/A,,Mostly Cloudy,140,2013-12-01 18:53:00
10:53 AM,37.0,27.0,67,30.32,10.0,SE,16.1,20.7,N/A,,Mostly Cloudy,140,2013-12-01 19:53:00
11:21 AM,37.4,28.4,70,30.31,10.0,SE,10.4,-,N/A,,Mostly Cloudy,140,2013-12-01 20:21:00
11:53 AM,37.9,28.0,68,30.31,10.0,SE,16.1,21.9,N/A,,Mostly Cloudy,140,2013-12-01 20:53:00
12:53 PM,39.0,28.9,67,30.31,10.0,ESE,18.4,25.3,N/A,,Overcast,120,2013-12-01 21:53:00
1:53 PM,39.0,28.9,67,30.31,10.0,ESE,17.3,-,N/A,,Overcast,120,2013-12-01 22:53:00
2:53 PM,39.0,30.0,70,30.30,10.0,SE,17.3,-,N/A,,Overcast,130,2013-12-01 23:53:00
3:53 PM,37.9,30.0,73,30.27,10.0,SE,21.9,27.6,N/A,,Overcast,130,2013-12-02 00:53:00
4:00 PM,37.4,30.2,75,30.25,10.0,ESE,21.9,-,N/A,,Partly Cloudy,120,2013-12-02 01:00:00
4:53 PM,37.9,28.9,70,30.27,10.0,ESE,26.5,33.4,N/A,,Clear,120,2013-12-02 01:53:00
5:42 PM,37.4,30.2,75,30.27,10.0,SSE,13.8,19.6,N/A,,Overcast,150,2013-12-02 02:42:00
5:53 PM,37.9,30.0,73,30.28,10.0,SSE,9.2,19.6,N/A,,Overcast,150,2013-12-02 02:53:00
6:00 PM,37.4,30.2,75,30.27,10.0,SSE,10.4,-,N/A,,Mostly Cloudy,160,2013-12-02 03:00:00
6:42 PM,37.4,30.2,75,30.28,10.0,SE,15.0,-,N/A,,Mostly Cloudy,140,2013-12-02 03:42:00
6:53 PM,37.9,30.0,73,30.29,10.0,SE,21.9,-,N/A,,Scattered Clouds,140,2013-12-02 03:53:00
7:53 PM,37.9,30.0,73,30.30,10.0,SE,19.6,-,N/A,,Partly Cloudy,140,2013-12-02 04:53:00
8:53 PM,39.0,30.9,73,30.30,10.0,SE,18.4,-,N/A,,Mostly Cloudy,130,2013-12-02 05:53:00
9:09 PM,39.2,30.2,70,30.29,10.0,ESE,20.7,-,N/A,,Mostly Cloudy,120,2013-12-02 06:09:00
9:48 PM,39.2,32.0,75,30.29,10.0,ESE,21.9,29.9,N/A,,Overcast,120,2013-12-02 06:48:00
9:53 PM,39.9,32.0,73,30.30,10.0,SE,18.4,-,N/A,,Overcast,130,2013-12-02 06:53:00
10:53 PM,39.9,32.0,73,30.30,10.0,SE,23.0,32.2,N/A,,Overcast,130,2013-12-02 07:53:00
11:53 PM,39.9,30.9,70,30.29,10.0,SE,19.6,28.8,N/A,,Overcast,130,2013-12-02 08:53:00